User: anonymous
Location: Dover
(39.1580°N, 75.5250°W)
Time: 03:41:12
(UTC-04:00)
Language:

Cosmos 1437 Rocket - Orbit

View from above orbital plane
View from above orbital plane
View from above satellite
View from above satellite

Ground track
Ground track

The orbit data is extracted from the following two-line orbital elements,

1 13771U 83003B   14111.80368626  .00006293  00000-0  42614-3 0   104
2 13771 081.1576 248.9166 0031071 214.3623 145.5591 15.05959879700069
Epoch (UTC): 21 April 2014 19:17:18
Eccentricity: 0.0031071
inclination: 81.1576°
perigee height: 527 km
apogee height: 570 km
right ascension of ascending node: 248.9166°
argument of perigee: 214.3623°
revolutions per day: 15.05959879
mean anomaly at epoch: 145.5591°
orbit number at epoch: 70006

The dashed part of the orbit path shows where the satellite is in the earth's shadow,  

DLR